Truth Or Consequences, NM

6:43 AM MDT on May 27, 2018 (GMT -0600)
Truth Or Consequences Municipal

Weather History for KTCS - July, 2013

Change the Weather History Date:

Saturday, July 6, 2013

  Actual Average Record
Temperature  
Mean Temperature 82 °F -  
Max Temperature 94 °F 93 °F 100 °F (1996)
Min Temperature 70 °F 66 °F 62 °F (1997)
Cooling Degree Days 17    
Month to date cooling degree days 81  
Year to date cooling degree days 861  
Since 1 June cooling degree days 613  
Growing Degree Days 32 (Base 50)    
Moisture  
Dew Point 49 °F    
Average Humidity 35    
Maximum Humidity 49    
Minimum Humidity 20    
Precipitation  
Precipitation 0.12 in - 0.13 in (2006)
Month to date precipitation 0.40  
Year to date precipitation 0.75  
Sea Level Pressure  
Sea Level Pressure 29.70 in    
Wind  
Wind Speed 7 mph (NW)    
Max Wind Speed 20 mph    
Max Gust Speed 25 mph    
Visibility 10 miles    
Events      
T = Trace of Precipitation, MM = Missing Value Source: NWS Daily Summary

Daily Weather History Graph

Daily Weather History Graph

Search for Another Location

Airport or City:

Astronomy

Jul. 06, 2013 Rise Set
Actual Time 6:05 AM MDT 8:21 PM MDT
Civil Twilight 5:37 AM MDT 8:50 PM MDT
Nautical Twilight 5:02 AM MDT 9:25 PM MDT
Astronomical Twilight 4:24 AM MDT 10:03 PM MDT
Moon 4:51 AM MDT (7/6) 7:08 PM MDT (7/6)
Length of Visible Light 15h 12m
Length of Day
14h 15m
Waning Crescent, 2% of the Moon is Illuminated
Jul 6
Waning Crescent
Jul 8
New
Jul 15
First Quarter
Jul 22
Full
Jul 29
Last Quarter

Hourly Weather History & Observations

Time (MDT) Temp. Dew Point Humidity Pressure Visibility Wind Dir Wind Speed Gust Speed Precip Events Conditions
12:53 AM 77.0 °F 48.9 °F 37% 29.72 in 10.0 mi NNE 9.2 mph - N/A   Clear
1:53 AM 75.9 °F 48.9 °F 38% 29.71 in 10.0 mi North 5.8 mph - N/A   Clear
2:53 AM 73.9 °F 50.0 °F 43% 29.72 in 10.0 mi NW 8.1 mph - N/A   Clear
3:53 AM 73.0 °F 51.1 °F 46% 29.73 in 10.0 mi Calm Calm - N/A   Clear
4:53 AM 73.0 °F 51.1 °F 46% 29.74 in 10.0 mi Calm Calm - N/A   Clear
5:53 AM 71.1 °F 52.0 °F 51% 29.75 in 10.0 mi NNE 5.8 mph - N/A   Clear
6:53 AM 71.1 °F 51.1 °F 49% 29.75 in 10.0 mi WNW 5.8 mph - N/A   Clear
7:53 AM 75.0 °F 52.0 °F 44% 29.76 in 10.0 mi West 5.8 mph - N/A   Clear
8:53 AM 79.0 °F 51.1 °F 38% 29.75 in 10.0 mi NNW 3.5 mph - N/A   Clear
9:53 AM 82.9 °F 50.0 °F 32% 29.75 in 10.0 mi NNW 5.8 mph - N/A   Clear
10:53 AM 86.0 °F 51.1 °F 30% 29.74 in 10.0 mi Variable 3.5 mph - N/A   Clear
11:53 AM 87.1 °F 48.0 °F 26% 29.73 in 10.0 mi Calm Calm - N/A   Clear
12:53 PM 89.1 °F 46.0 °F 22% 29.70 in 10.0 mi Calm Calm - N/A   Clear
1:53 PM 91.9 °F 46.9 °F 21% 29.68 in 10.0 mi Variable 4.6 mph - N/A   Clear
2:53 PM 91.0 °F 46.0 °F 21% 29.66 in 10.0 mi West 5.8 mph - N/A   Clear
3:53 PM 90.0 °F 46.9 °F 23% 29.65 in 10.0 mi West 12.7 mph - N/A   Clear
4:53 PM 90.0 °F 46.0 °F 22% 29.63 in 10.0 mi West 9.2 mph - N/A   Clear
5:53 PM 91.9 °F 45.0 °F 20% 29.63 in 10.0 mi WNW 5.8 mph - N/A   Clear
6:53 PM 91.0 °F 46.0 °F 21% 29.64 in 10.0 mi WNW 10.4 mph - N/A   Clear
7:53 PM 84.0 °F 50.0 °F 31% 29.65 in 10.0 mi NW 15.0 mph 25.3 mph N/A   Clear
8:53 PM 82.0 °F 48.9 °F 31% 29.67 in 10.0 mi NW 12.7 mph 20.7 mph N/A   Clear
9:53 PM 81.0 °F 50.0 °F 34% 29.68 in 10.0 mi NW 10.4 mph - N/A   Clear
10:53 PM 82.0 °F 48.9 °F 31% 29.69 in 10.0 mi NW 6.9 mph - N/A   Clear
11:53 PM 82.0 °F 50.0 °F 33% 29.70 in 10.0 mi NNW 10.4 mph 17.3 mph N/A   Mostly Cloudy